Flag for Denmark Weather past 2 weeks in Aalborg, Denmark

Now
59 °F

Passing clouds.


Feels Like: 58 °F
Forecast: 51 / 67 °F
Wind: 8 mph from West

Location: Aalborg Airport

Current Time: Aug 27, 2014 at 11:36:53 PM

Latest Report: Aug 27, 2014 at 10:50 PM


Visibility: N/A

Pressure: 29.98 "Hg

Humidity: 88%

Dew point: 55 °F

Location of AalborgLocation

Historic Weather in Aalborg — Graph

°F

Aalborg temperature yesterday

Maximum temperature yesterday: 70 °F (at 2:50 PM)
Minimum temperature yesterday: 48 °F (at 2:20 AM)
Average temperature yesterday: 58 °F

Past Weeks' High & Low Weather Summary

 TemperatureHumidityPressure
High72 °F (Aug 27, 2:50 PM)100% (Aug 14, 6:20 AM)29.98 "Hg (Aug 14, 6:20 AM)
Low48 °F (Aug 26, 2:20 AM)38% (Aug 27, 2:50 PM)29.27 "Hg (Aug 18, 6:20 AM)
Average59 °F81%29.63 "Hg
* Reported Aug 12 10:20 PM — Aug 27 10:20 PM, Aalborg, Weather by CustomWeather, © 2014

Note: Actual official high and low records may vary slightly from our data, if they occured in-between our weather recording intervals... More about our weather records

Advertising

Aalborg weather history for previous 24 hours

 ConditionsComfort  
Time TempWeatherWind HumidityBarometerVisibility
10:20 PM
Aug 27
59 °FPassing clouds.8 mph88%29.98 "HgN/A
9:50 PM59 °FPassing clouds.7 mph88%29.98 "HgN/A
9:20 PM59 °FPassing clouds.7 mph88%29.98 "HgN/A
8:50 PM59 °FPassing clouds.6 mph88%29.98 "HgN/A
7:50 PM63 °FPassing clouds.8 mph83%29.95 "HgN/A
7:20 PM63 °FPassing clouds.10 mph83%29.98 "HgN/A
6:20 PM66 °FPassing clouds.12 mph73%29.95 "HgN/A
4:20 PM70 °FPassing clouds.8 mph43%29.95 "HgN/A
3:50 PM70 °FPassing clouds.9 mph46%29.95 "HgN/A
3:20 PM70 °FPassing clouds.10 mph46%29.95 "HgN/A
2:50 PM72 °FPassing clouds.7 mph38%29.95 "HgN/A
2:20 PM70 °FPassing clouds.7 mph43%29.95 "HgN/A
1:50 PM70 °FPassing clouds.7 mph46%29.95 "HgN/A
1:20 PM70 °FPassing clouds.6 mph50%29.95 "HgN/A
12:20 PM70 °FPassing clouds.3 mph46%29.95 "HgN/A
11:50 AM68 °FPassing clouds.5 mph53%29.95 "HgN/A
11:20 AM68 °FPassing clouds.6 mph56%29.95 "HgN/A
10:50 AM66 °FPassing clouds.6 mph64%29.95 "HgN/A
10:20 AM66 °FPassing clouds.5 mph64%29.92 "HgN/A
9:50 AM64 °FPassing clouds.6 mph73%29.92 "HgN/A
9:20 AM61 °FPassing clouds.5 mph88%29.92 "HgN/A
8:50 AM59 °FSunny.3 mph100%29.92 "Hg10 mi
8:20 AM57 °FSunny.1 mph94%29.92 "Hg10 mi
7:50 AM55 °FFog.No wind94%29.89 "Hg1 mi
7:20 AM54 °FFog.3 mph94%29.89 "Hg1 mi
6:50 AM52 °FFog.2 mph100%29.89 "Hg0 mi
6:20 AM52 °FFog.2 mph100%29.89 "Hg0 mi
5:50 AM52 °FFog.3 mph100%29.89 "Hg0 mi
5:20 AM52 °FFog.3 mph94%29.89 "Hg0 mi
4:50 AM52 °FClear.2 mph94%29.89 "Hg0 mi
4:20 AM52 °FClear.3 mph100%29.86 "Hg1 mi
3:50 AM52 °FClear.5 mph100%29.86 "Hg1 mi
3:20 AM52 °FClear.2 mph94%29.86 "Hg1 mi
2:50 AM52 °FFog.2 mph100%29.86 "HgN/A
2:20 AM52 °FFog.No wind94%29.86 "HgN/A
1:50 AM52 °FFog.3 mph94%29.86 "HgN/A
1:20 AM52 °FFog.1 mph94%29.86 "HgN/A
12:50 AM52 °FFog.1 mph94%29.86 "HgN/A
12:20 AM52 °FFog.1 mph88%29.86 "HgN/A
11:50 PM
Aug 26
54 °FFog.No wind88%29.86 "HgN/A
11:20 PM54 °FClear.3 mph88%29.86 "Hg10 mi
Weather by CustomWeather, © 2014

See weather overviewHow to use our weather pages